Left ArrowRight Arrow

Hourly Observations for June 15, 2024

Temp ( °F °C ) Dew Point ( °F °C ) Humidity (%) Winds ( mph kmh ) Pressure ( in mb ) Visibility ( mi km ) Precip ( " mm )
12:53 am 00:53 Clear 87 30.6 55 12.8 34 34 SE 18 30 29.75 1008 10 16 0.00 0.00
1:53 am 01:53 Clear 85 29.4 56 13.3 37 37 SE 20 31 29.75 1007 10 16 0.00 0.00
2:53 am 02:53 Clear 84 28.9 58 14.4 41 41 ESE 17 28 29.75 1007 10 16 0.00 0.00
3:53 am 03:53 Partly Cloudy with Light Rain 83 28.3 59 15 44 44 SE 17 28 29.76 1008 10 16 0.01 0.13
4:53 am 04:53 Clear 82 27.8 58 14.4 44 44 E 14 22 29.76 1008 10 16 0.01 0.13
5:53 am 05:53 Clear 80 26.7 59 15 49 49 ESE 16 26 29.78 1008 10 16 0.00 0.00
6:53 am 06:53 Sunny 78 25.6 59 15 52 52 ESE 14 22 29.80 1009 10 16 0.00 0.00
7:53 am 07:53 Sunny 79 26.1 61 16.1 54 54 ESE 18 30 29.78 1009 10 16 0.00 0.00
8:53 am 08:53 Sunny 80 26.7 66 18.9 62 62 SSE 28 44 29.79 1009 8 13 0.00 0.00
9:53 am 09:53 Sunny 83 28.3 65 18.3 55 55 SSE 25 41 29.79 1009 10 16 0.00 0.00
10:53 am 10:53 Sunny 87 30.6 64 17.8 46 46 SE 21 33 29.77 1008 10 16 0.00 0.00
11:53 am 11:53 Sunny 91 32.8 63 17.2 39 39 SSE 18 30 29.75 1007 10 16 0.00 0.00
12:53 pm 12:53 Sunny 94 34.4 62 16.7 35 35 SSE 21 33 29.72 1007 10 16 0.00 0.00
1:53 pm 13:53 Sunny 96 35.6 61 16.1 31 31 SSE 20 31 29.70 1006 10 16 0.00 0.00
2:53 pm 14:53 Sunny 100 37.8 60 15.6 27 27 S 17 28 29.66 1004 10 16 0.00 0.00
3:53 pm 15:53 Sunny 102 38.9 60 15.6 25 25 SSE 17 28 29.62 1003 10 16 0.00 0.00
4:53 pm 16:53 Sunny 102 38.9 59 15 25 25 SE 14 22 29.59 1002 10 16 0.00 0.00
5:53 pm 17:53 Sunny 103 39.4 59 15 24 24 SSE 18 30 29.57 1001 10 16 0.00 0.00
6:53 pm 18:53 Mostly Sunny 101 38.3 59 15 25 25 ESE 24 39 29.56 1001 10 16 0.00 0.00
7:53 pm 19:53 Sunny 100 37.8 58 14.4 25 25 SE 23 37 29.56 1001 10 16 0.00 0.00
8:53 pm 20:53 Sunny 95 35 56 13.3 27 27 SE 24 39 29.57 1001 10 16 0.00 0.00
9:53 pm 21:53 Clear 92 33.3 57 13.9 31 31 SE 22 35 29.59 1002 10 16 0.00 0.00
10:53 pm 22:53 Clear 90 32.2 57 13.9 33 33 SE 26 43 29.62 1003 10 16 0.00 0.00
11:53 pm 23:53 Clear 88 31.1 56 13.3 34 34 SE 22 35 29.63 1003 10 16 0.00 0.00

Powered by Vaisala Xweather